カタログに戻る

DELTA 1 DEB

YO

運用中VLEO
NORAD 228·DEBRIS·🇺🇸 United States

打ち上げ Feb 8, 1962 から Cape Canaveral Space Force Station

Loading…

次のパス (今後24時間)

TLE

最新Source: Space-Track

元期: Sep 9, 2026, 07:27 UTC

1 00228U 62002C   26252.31052990  .00038546  00000-0  49364-3 0  9993
2 00228  48.4274 227.9922 0001585 159.2984 200.8027 15.58704137456200

AllMySatでDELTA 1 DEBをリアルタイム追跡

Download on the App Store